Regional Weather Roundup
Issued by NWS

Home | Current Version | Previous Version | Graphics & Text | Print | Product List | Glossary On
Versions: 1 2 3 4 5 6 7 8 9 10 11 12 13 14 15 16 17 18 19 20 21 22 23 24 25 26 27 28 29 30 31 32 33 34 35 36 37 38 39 40 41 42 43 44 45 46 47 48 49 50
393
ASUS43 KOAX 220902
RWRNE

WEATHER ROUNDUP FOR NEBRASKA
NATIONAL WEATHER SERVICE OMAHA NE
300 AM CST WED FEB 22 2017

NOTES: SATELLITE DATA IS BEING USED TO AUGMENT CLOUD COVER ABOVE
       12000 FEET.
       "FAIR" INDICATES FEW OR NO CLOUDS BELOW 12,000 FEET WITH NO
       SIGNIFICANT WEATHER AND/OR OBSTRUCTIONS TO VISIBILITY.

  * THESE STATIONS DO NOT REPORT WEATHER SUCH AS RAIN...SNOW OR FOG.

NEZ001>004-019>022-054>056-221000-
NEBRASKA PANHANDLE

CITY           SKY/WX    TMP DP  RH WIND       PRES   REMARKS
SCOTTSBLUFF    CLEAR     44  33  65 NW16      29.85R
ALLIANCE       CLEAR     41  33  73 NW13      29.81R
CHADRON        CLOUDY    48  35  60 W20       29.79R
KIMBALL        CLEAR     45  32  60 NW15      29.86R
SIDNEY         CLEAR     55  18  23 W23G31    29.79S
$$

NEZ057>060-069>072-079>082-221000-
SOUTHWEST NEBRASKA

CITY           SKY/WX    TMP DP  RH WIND       PRES   REMARKS
NORTH PLATTE   CLEAR     29  24  82 NW6       29.74F WCI  23
IMPERIAL       CLOUDY    47  17  30 W12       29.78S
LEXINGTON      CLEAR     34  28  79 W6        29.71S WCI  28
MCCOOK         PTCLDY    45  25  45 W8        29.73F
OGALLALA       CLOUDY    33  21  61 CALM      29.76S
$$

NEZ005>010-023>029-035>040-094-221000-
NORTH CENTRAL NEBRASKA

CITY           SKY/WX    TMP DP  RH WIND       PRES   REMARKS
VALENTINE      PTCLDY    37  29  72 SW10      29.74R WCI  30
AINSWORTH      CLEAR     39  30  69 S7        29.69F WCI  34
BROKEN BOW     CLOUDY    42  30  62 VRB5      29.70F
O`NEILL        CLEAR     49  32  51 W7        29.69F
ORD            MOCLDY    44  32  62 S3        29.67F
THEDFORD       CLEAR     43  27  52 W5        29.72F
$$

NEZ041-046>049-061>064-073>077-083>087-221000-
SOUTH CENTRAL NEBRASKA

CITY           SKY/WX    TMP DP  RH WIND       PRES   REMARKS
GRAND ISLAND   CLEAR     51  29  42 SW7       29.70F
AURORA         CLEAR     44  30  56 SW8       29.71F
HASTINGS       CLOUDY    49  28  44 S5        29.72F
HEBRON         PTCLDY    50  34  54 SW9       29.75F
HOLDREGE       CLOUDY    38  24  56 SW3       29.70F
KEARNEY *      CLOUDY    39  25  56 CALM      29.70F
YORK           CLEAR     41  30  65 S9        29.72F
$$

NEZ011>018-030>034-042>045-221000-
NORTHEAST NEBRASKA

CITY           SKY/WX    TMP DP  RH WIND       PRES   REMARKS
NORFOLK        CLEAR     39  31  72 E7        29.67F WCI  34
ALBION         PTCLDY    45  34  66 CALM      29.67F
BLAIR          CLEAR     52  36  54 S13       29.70F
FREMONT        CLEAR     51  33  51 S8        29.71F
TEKAMAH        CLEAR     48  35  60 S12       29.69F
WAYNE          CLEAR     42  33  70 SW3       29.66F
$$

NEZ050>053-065>068-078-088>093-221000-
SOUTHEAST NEBRASKA

CITY           SKY/WX    TMP DP  RH WIND       PRES   REMARKS
LINCOLN        CLEAR     48  34  58 CALM      29.75F
OMAHA EPPLEY   CLEAR     47  35  63 SE12      29.72F
BEATRICE       CLEAR     51  36  57 S10       29.75F
FALLS CITY     CLEAR     51  34  52 S10       29.77F
NEBRASKA CITY  CLEAR     51  30  44 SW15      29.75F
PLATTSMOUTH    CLEAR     55  31  40 S13       29.73F
$$

NEZ044-045-051>053-067-221000-
OMAHA AREA

CITY           SKY/WX    TMP DP  RH WIND       PRES   REMARKS
OMAHA EPPLEY   CLEAR     47  35  63 SE12      29.72F
BLAIR          CLEAR     52  36  54 S13       29.70F
FREMONT        CLEAR     51  33  51 S8        29.71F
MILLARD        CLEAR     53  37  54 S5        29.73F
OFFUTT AFB     CLEAR     50  34  53 CALM      29.73F
PLATTSMOUTH    CLEAR     55  31  40 S13       29.73F
WAHOO          FAIR      48  33  56 S9        29.70F
$$




USA.gov is the U.S. government's official web portal to all federal, state and local government web resources and services.